Year,Month,Day,Hour,Minute,Value (Times are PST for temperature in C)
2018,05,14,10,34,16.40
2018,05,14,10,35,16.40
2018,05,14,10,36,16.30
2018,05,14,10,37,16.30
2018,05,14,10,38,16.30
2018,05,14,10,39,16.30
2018,05,14,10,40,16.40
2018,05,14,10,41,16.40
2018,05,14,10,42,16.40
2018,05,14,10,43,16.40
2018,05,14,10,44,16.40
2018,05,14,10,45,16.50
2018,05,14,10,46,16.50
2018,05,14,10,47,16.50
2018,05,14,10,48,16.60
2018,05,14,10,49,16.60
2018,05,14,10,50,16.60
2018,05,14,10,51,16.60
2018,05,14,10,52,16.60
2018,05,14,10,53,16.60
2018,05,14,10,54,16.60
2018,05,14,10,55,16.60
2018,05,14,10,56,16.60
2018,05,14,10,57,16.60
2018,05,14,10,58,16.60
2018,05,14,10,59,16.60
2018,05,14,11,00,16.60
2018,05,14,11,01,16.60
2018,05,14,11,02,16.70
2018,05,14,11,03,16.70
2018,05,14,11,04,16.70
2018,05,14,11,05,16.70
2018,05,14,11,06,16.70
2018,05,14,11,07,16.80
2018,05,14,11,08,16.80
2018,05,14,11,09,16.90
2018,05,14,11,10,16.90
2018,05,14,11,11,16.80
2018,05,14,11,12,16.80
2018,05,14,11,13,16.80
2018,05,14,11,14,16.80
2018,05,14,11,15,16.80
2018,05,14,11,16,16.80
2018,05,14,11,17,16.80
2018,05,14,11,18,16.90
2018,05,14,11,19,16.90
2018,05,14,11,20,17.00
2018,05,14,11,21,17.00
2018,05,14,11,22,17.00
2018,05,14,11,23,17.10
2018,05,14,11,24,17.10
2018,05,14,11,25,17.10
2018,05,14,11,26,17.10
2018,05,14,11,27,17.20
2018,05,14,11,28,17.20
2018,05,14,11,29,17.20
2018,05,14,11,30,17.30
2018,05,14,11,31,17.30
2018,05,14,11,32,17.40
2018,05,14,11,33,17.40
2018,05,14,11,34,17.40
2018,05,14,11,35,17.40
2018,05,14,11,36,17.30
2018,05,14,11,37,17.30
2018,05,14,11,38,17.20
2018,05,14,11,39,17.20
2018,05,14,11,40,17.10
2018,05,14,11,41,17.00
2018,05,14,11,42,16.90
2018,05,14,11,43,16.90
2018,05,14,11,44,16.80
2018,05,14,11,45,16.80
2018,05,14,11,46,16.70
2018,05,14,11,47,16.70
2018,05,14,11,48,16.70
2018,05,14,11,49,16.70
2018,05,14,11,50,16.70
2018,05,14,11,51,16.60
2018,05,14,11,52,16.60
2018,05,14,11,53,16.70
2018,05,14,11,54,16.70
2018,05,14,11,55,16.70
2018,05,14,11,56,16.70
2018,05,14,11,57,16.70
2018,05,14,11,58,16.70
2018,05,14,11,59,16.60
2018,05,14,12,00,16.60
2018,05,14,12,01,16.60
2018,05,14,12,02,16.60
2018,05,14,12,03,16.50
2018,05,14,12,04,16.50
2018,05,14,12,05,16.60
2018,05,14,12,06,16.60
2018,05,14,12,07,16.50
2018,05,14,12,08,16.50
2018,05,14,12,09,16.50
2018,05,14,12,10,16.50
2018,05,14,12,11,16.50
2018,05,14,12,12,16.60
2018,05,14,12,13,16.70
2018,05,14,12,14,16.70
2018,05,14,12,15,16.80
2018,05,14,12,16,16.80
2018,05,14,12,17,16.80
2018,05,14,12,18,16.80
2018,05,14,12,19,16.80
2018,05,14,12,20,16.80
2018,05,14,12,21,16.80
2018,05,14,12,22,16.70
2018,05,14,12,23,16.70
2018,05,14,12,24,16.70
2018,05,14,12,25,16.70
2018,05,14,12,26,16.70
2018,05,14,12,27,16.70
2018,05,14,12,28,16.70
2018,05,14,12,29,16.70
2018,05,14,12,30,16.70
2018,05,14,12,31,16.70
2018,05,14,12,32,16.70
2018,05,14,12,33,16.70
2018,05,14,12,34,16.60
2018,05,14,12,35,16.60
2018,05,14,12,36,16.60
2018,05,14,12,37,16.60
2018,05,14,12,38,16.60
2018,05,14,12,39,16.60
2018,05,14,12,40,16.60
2018,05,14,12,41,16.60
2018,05,14,12,42,16.50
2018,05,14,12,43,16.50
2018,05,14,12,44,16.60
2018,05,14,12,45,16.60
2018,05,14,12,46,16.70
2018,05,14,12,47,16.70
2018,05,14,12,48,16.70
2018,05,14,12,49,16.70
2018,05,14,12,50,16.60
2018,05,14,12,51,16.50
2018,05,14,12,52,16.40
2018,05,14,12,53,16.40
2018,05,14,12,54,16.30
2018,05,14,12,55,16.20
2018,05,14,12,56,16.10
2018,05,14,12,57,16.00
2018,05,14,12,58,16.00
2018,05,14,12,59,16.00
2018,05,14,13,00,16.00
2018,05,14,13,01,16.00
2018,05,14,13,02,15.90
2018,05,14,13,03,15.90
2018,05,14,13,04,15.90
2018,05,14,13,05,16.00
2018,05,14,13,06,16.00
2018,05,14,13,07,16.10
2018,05,14,13,08,16.10
2018,05,14,13,09,16.20
2018,05,14,13,10,16.20
2018,05,14,13,11,16.30
2018,05,14,13,12,16.20
2018,05,14,13,13,16.10
2018,05,14,13,14,16.10
2018,05,14,13,15,16.10
2018,05,14,13,16,16.00
2018,05,14,13,17,16.10
2018,05,14,13,18,16.10
2018,05,14,13,19,16.20
2018,05,14,13,20,16.20
2018,05,14,13,21,16.30
2018,05,14,13,22,16.30
2018,05,14,13,23,16.30
2018,05,14,13,24,16.20
2018,05,14,13,25,16.20
2018,05,14,13,26,16.20
2018,05,14,13,27,16.20
2018,05,14,13,28,16.20
2018,05,14,13,29,16.10
2018,05,14,13,30,16.10
2018,05,14,13,31,16.00
2018,05,14,13,32,16.10
2018,05,14,13,33,16.10
2018,05,14,13,34,16.10
2018,05,14,13,35,16.20
2018,05,14,13,36,16.20
2018,05,14,13,37,16.30
2018,05,14,13,38,16.40
2018,05,14,13,39,16.50
2018,05,14,13,40,16.50
2018,05,14,13,41,16.50
2018,05,14,13,42,16.40
2018,05,14,13,43,16.30
2018,05,14,13,44,16.20
2018,05,14,13,45,16.20
2018,05,14,13,46,16.10
2018,05,14,13,47,16.10
2018,05,14,13,48,16.10
2018,05,14,13,49,16.10
2018,05,14,13,50,16.10
2018,05,14,13,51,16.10
2018,05,14,13,52,16.10
2018,05,14,13,53,16.10
2018,05,14,13,54,16.10
2018,05,14,13,55,16.10
2018,05,14,13,56,16.20
2018,05,14,13,57,16.20
2018,05,14,13,58,16.20
2018,05,14,13,59,16.20
2018,05,14,14,00,16.20
2018,05,14,14,01,16.20
2018,05,14,14,02,16.20
2018,05,14,14,03,16.20
2018,05,14,14,04,16.20
2018,05,14,14,05,16.30
2018,05,14,14,06,16.30
2018,05,14,14,07,16.30
2018,05,14,14,08,16.30
2018,05,14,14,09,16.30
2018,05,14,14,10,16.40
2018,05,14,14,11,16.40
2018,05,14,14,12,16.40
2018,05,14,14,13,16.50
2018,05,14,14,14,16.60
2018,05,14,14,15,16.60
2018,05,14,14,16,16.60
2018,05,14,14,17,16.60
2018,05,14,14,18,16.60
2018,05,14,14,19,16.60
2018,05,14,14,20,16.60
2018,05,14,14,21,16.60
2018,05,14,14,22,16.60
2018,05,14,14,23,16.60
2018,05,14,14,24,16.70
2018,05,14,14,25,16.80
2018,05,14,14,26,16.80
2018,05,14,14,27,16.90
2018,05,14,14,28,16.90
2018,05,14,14,29,16.90
2018,05,14,14,30,16.80
2018,05,14,14,31,16.70
2018,05,14,14,32,16.70
2018,05,14,14,33,16.70
2018,05,14,14,34,16.60
2018,05,14,14,35,16.60
2018,05,14,14,36,16.50
2018,05,14,14,37,16.40
2018,05,14,14,38,16.30
2018,05,14,14,39,16.20
2018,05,14,14,40,16.10
2018,05,14,14,41,16.00
2018,05,14,14,42,15.90
2018,05,14,14,43,15.80
2018,05,14,14,44,15.70
2018,05,14,14,45,15.70
2018,05,14,14,46,15.60
2018,05,14,14,47,15.60
2018,05,14,14,48,15.50
2018,05,14,14,49,15.50
2018,05,14,14,50,15.50
2018,05,14,14,51,15.40
2018,05,14,14,52,15.40
2018,05,14,14,53,15.40
2018,05,14,14,54,15.50
2018,05,14,14,55,15.50
2018,05,14,14,56,15.50
2018,05,14,14,57,15.50
2018,05,14,14,58,15.50
2018,05,14,14,59,15.50
2018,05,14,15,00,15.50
2018,05,14,15,01,15.50
2018,05,14,15,02,15.50
2018,05,14,15,03,15.50
2018,05,14,15,04,15.50
2018,05,14,15,05,15.60
2018,05,14,15,06,15.60
2018,05,14,15,07,15.70
2018,05,14,15,08,15.70
2018,05,14,15,09,15.70
2018,05,14,15,10,15.70
2018,05,14,15,11,15.70
2018,05,14,15,12,15.80
2018,05,14,15,13,15.80
2018,05,14,15,14,15.70
2018,05,14,15,15,15.60
2018,05,14,15,16,15.50
2018,05,14,15,17,15.50
2018,05,14,15,18,15.40
2018,05,14,15,19,15.30
2018,05,14,15,20,15.20
2018,05,14,15,21,15.20
2018,05,14,15,22,15.10
2018,05,14,15,23,15.20
2018,05,14,15,24,15.20
2018,05,14,15,25,15.20
2018,05,14,15,26,15.30
2018,05,14,15,27,15.30
2018,05,14,15,28,15.40
2018,05,14,15,29,15.40
2018,05,14,15,30,15.30
2018,05,14,15,31,15.30
2018,05,14,15,32,15.20
2018,05,14,15,33,15.20
2018,05,14,15,34,15.30
2018,05,14,15,35,15.40
2018,05,14,15,36,15.50
2018,05,14,15,37,15.50
2018,05,14,15,38,15.40
2018,05,14,15,39,15.30
2018,05,14,15,40,15.20
2018,05,14,15,41,15.20
2018,05,14,15,42,15.20
2018,05,14,15,43,15.20
2018,05,14,15,44,15.20
2018,05,14,15,45,15.10
2018,05,14,15,46,15.10
2018,05,14,15,47,15.00
2018,05,14,15,48,15.00
2018,05,14,15,49,15.00
2018,05,14,15,50,15.00
2018,05,14,15,51,15.00
2018,05,14,15,52,15.00
2018,05,14,15,53,15.00
2018,05,14,15,54,15.10
2018,05,14,15,55,15.10
2018,05,14,15,56,15.00
2018,05,14,15,57,15.00
2018,05,14,15,58,14.90
2018,05,14,15,59,14.90
2018,05,14,16,00,14.90
2018,05,14,16,01,14.80
2018,05,14,16,02,14.80
2018,05,14,16,03,14.80
2018,05,14,16,04,14.90
2018,05,14,16,05,14.90
2018,05,14,16,06,15.00
2018,05,14,16,07,15.10
2018,05,14,16,08,15.10
2018,05,14,16,09,15.10
2018,05,14,16,10,15.00
2018,05,14,16,11,15.00
2018,05,14,16,12,14.90
2018,05,14,16,13,14.90
2018,05,14,16,14,14.80
2018,05,14,16,15,14.80
2018,05,14,16,16,14.80
2018,05,14,16,17,14.70
2018,05,14,16,18,14.70
2018,05,14,16,19,14.60
2018,05,14,16,20,14.60
2018,05,14,16,21,14.60
2018,05,14,16,22,14.60
2018,05,14,16,23,14.70
2018,05,14,16,24,14.70
2018,05,14,16,25,14.70
2018,05,14,16,26,14.70
2018,05,14,16,27,14.70
2018,05,14,16,28,14.70
2018,05,14,16,29,14.70
2018,05,14,16,30,14.70
2018,05,14,16,31,14.70
2018,05,14,16,32,14.70
2018,05,14,16,33,14.80
2018,05,14,16,34,14.80
2018,05,14,16,35,14.80
2018,05,14,16,36,14.90
2018,05,14,16,37,14.90
2018,05,14,16,38,14.90
2018,05,14,16,39,15.00
2018,05,14,16,40,15.00
2018,05,14,16,41,15.00
2018,05,14,16,42,15.00
2018,05,14,16,43,15.00
2018,05,14,16,44,15.00
2018,05,14,16,45,15.00
2018,05,14,16,46,15.00
2018,05,14,16,47,15.00
2018,05,14,16,48,15.00
2018,05,14,16,49,14.90
2018,05,14,16,50,14.90
2018,05,14,16,51,14.90
2018,05,14,16,52,14.90
2018,05,14,16,53,14.90
2018,05,14,16,54,14.90
2018,05,14,16,55,14.90
2018,05,14,16,56,14.90
2018,05,14,16,57,14.90
2018,05,14,16,58,14.90
2018,05,14,16,59,14.90
2018,05,14,17,00,14.90
2018,05,14,17,01,14.80
2018,05,14,17,02,14.90
2018,05,14,17,03,14.90
2018,05,14,17,04,14.90
2018,05,14,17,05,14.90
2018,05,14,17,06,14.90
2018,05,14,17,07,14.90
2018,05,14,17,08,14.90
2018,05,14,17,09,15.00
2018,05,14,17,10,15.00
2018,05,14,17,11,14.90
2018,05,14,17,12,14.90
2018,05,14,17,13,14.90
2018,05,14,17,14,14.80
2018,05,14,17,15,14.80
2018,05,14,17,16,14.80
2018,05,14,17,17,14.80
2018,05,14,17,18,14.80
2018,05,14,17,19,14.80
2018,05,14,17,20,14.80
2018,05,14,17,21,14.70
2018,05,14,17,22,14.60
2018,05,14,17,23,14.60
2018,05,14,17,24,14.60
2018,05,14,17,25,14.60
2018,05,14,17,26,14.60
2018,05,14,17,27,14.60
2018,05,14,17,28,14.60
2018,05,14,17,29,14.60
2018,05,14,17,30,14.60
2018,05,14,17,31,14.70
2018,05,14,17,32,14.70
2018,05,14,17,33,14.70
2018,05,14,17,34,14.60
2018,05,14,17,35,14.60
2018,05,14,17,36,14.60
2018,05,14,17,37,14.60
2018,05,14,17,38,14.60
2018,05,14,17,39,14.60
2018,05,14,17,40,14.60
2018,05,14,17,41,14.60
2018,05,14,17,42,14.60
2018,05,14,17,43,14.70
2018,05,14,17,44,14.70
2018,05,14,17,45,14.70
2018,05,14,17,46,14.70
2018,05,14,17,47,14.80
2018,05,14,17,48,14.80
2018,05,14,17,49,14.80
2018,05,14,17,50,14.80
2018,05,14,17,51,14.70
2018,05,14,17,52,14.70
2018,05,14,17,53,14.70
2018,05,14,17,54,14.60
2018,05,14,17,55,14.60
2018,05,14,17,56,14.70
2018,05,14,17,57,14.70
2018,05,14,17,58,14.70
2018,05,14,17,59,14.70
2018,05,14,18,00,14.70
2018,05,14,18,01,14.70
2018,05,14,18,02,14.70
2018,05,14,18,03,14.60
2018,05,14,18,04,14.60
2018,05,14,18,05,14.50
2018,05,14,18,06,14.50
2018,05,14,18,07,14.50
2018,05,14,18,08,14.40
2018,05,14,18,09,14.30
2018,05,14,18,10,14.20
2018,05,14,18,11,14.10
2018,05,14,18,12,14.10
2018,05,14,18,13,14.10
2018,05,14,18,14,14.10
2018,05,14,18,15,14.00
2018,05,14,18,16,14.00
2018,05,14,18,17,14.00
2018,05,14,18,18,14.10
2018,05,14,18,19,14.10
2018,05,14,18,20,14.10
2018,05,14,18,21,14.00
2018,05,14,18,22,14.00
2018,05,14,18,23,14.00
2018,05,14,18,24,14.00
2018,05,14,18,25,13.90
2018,05,14,18,26,13.90
2018,05,14,18,27,13.90
2018,05,14,18,28,13.90
2018,05,14,18,29,13.90
2018,05,14,18,30,13.90
2018,05,14,18,31,13.90
2018,05,14,18,32,14.00
2018,05,14,18,33,14.00
2018,05,14,18,34,14.00
2018,05,14,18,35,14.00
2018,05,14,18,36,14.00
2018,05,14,18,37,14.10
2018,05,14,18,38,14.00
2018,05,14,18,39,13.90
2018,05,14,18,40,13.90
2018,05,14,18,41,13.90
2018,05,14,18,42,13.80
2018,05,14,18,43,13.80
2018,05,14,18,44,13.80
2018,05,14,18,45,13.80
2018,05,14,18,46,13.80
2018,05,14,18,47,13.70
2018,05,14,18,48,13.70
2018,05,14,18,49,13.70
2018,05,14,18,50,13.70
2018,05,14,18,51,13.60
2018,05,14,18,52,13.60
2018,05,14,18,53,13.50
2018,05,14,18,54,13.50
2018,05,14,18,55,13.40
2018,05,14,18,56,13.40
2018,05,14,18,57,13.40
2018,05,14,18,58,13.40
2018,05,14,18,59,13.40
2018,05,14,19,00,13.40
2018,05,14,19,01,13.40
2018,05,14,19,02,13.30
2018,05,14,19,03,13.40
2018,05,14,19,04,13.40
2018,05,14,19,05,13.40
2018,05,14,19,06,13.40
2018,05,14,19,07,13.40
2018,05,14,19,08,13.40
2018,05,14,19,09,13.40
2018,05,14,19,10,13.40
2018,05,14,19,11,13.40
2018,05,14,19,12,13.40
2018,05,14,19,13,13.30
2018,05,14,19,14,13.20
2018,05,14,19,15,13.20
2018,05,14,19,16,13.20
2018,05,14,19,17,13.10
2018,05,14,19,18,13.10
2018,05,14,19,19,13.10
2018,05,14,19,20,13.10
2018,05,14,19,21,13.10
2018,05,14,19,22,13.10
2018,05,14,19,23,13.10
2018,05,14,19,24,13.20
2018,05,14,19,25,13.20
2018,05,14,19,26,13.20
2018,05,14,19,27,13.20
2018,05,14,19,28,13.10
2018,05,14,19,29,13.10
2018,05,14,19,30,13.10
2018,05,14,19,31,13.00
2018,05,14,19,32,13.00
2018,05,14,19,33,12.90
2018,05,14,19,34,12.90
2018,05,14,19,35,12.90
2018,05,14,19,36,12.90
2018,05,14,19,37,13.00
2018,05,14,19,38,13.00
2018,05,14,19,39,13.00
2018,05,14,19,40,12.90
2018,05,14,19,41,12.90
2018,05,14,19,42,12.90
2018,05,14,19,43,12.90
2018,05,14,19,44,12.90
2018,05,14,19,45,12.90
2018,05,14,19,46,12.90
2018,05,14,19,47,12.90
2018,05,14,19,48,12.90
2018,05,14,19,49,12.90
2018,05,14,19,50,12.90
